Overview Statistics Trail Chart Weather Telemetry Raw packets
 

This is the latest recevied weather packets stored in our database for station/object 4S6DRJ-13. If no packets are shown the sender has not sent any weather packets the latest 10 day(s).

<< 431 432 433 434 435 436 437 >>
Time Temp. Humidity Pressure Rain* Wind** Luminosity Snow
1787803756 30° C 78% 1011.4 hPa 0 mm 1.79 m/s, 151° 791 W/m² -
1787803694 30° C 78% 1011.3 hPa 0 mm 1.79 m/s, 273° 738 W/m² -
1787803634 30° C 78% 1011.2 hPa 0 mm 1.34 m/s, 284° 662 W/m² -
1787803573 30° C 78% 1011.1 hPa 0 mm 1.34 m/s, 191° 687 W/m² -
1787803512 30° C 78% 1011.2 hPa 0 mm 1.79 m/s, 247° 778 W/m² -
1787803450 30° C 77% 1011.2 hPa 0 mm 1.79 m/s, 303° 930 W/m² -
1787803391 30° C 78% 1011.3 hPa 0 mm 0.89 m/s, 222° 620 W/m² -
1787803329 30° C 77% 1010.9 hPa 0 mm 1.34 m/s, 256° 621 W/m² -
1787803268 30° C 78% 1011 hPa 0 mm 0.89 m/s, 332° 298 W/m² -
1787803206 30° C 77% 1011.1 hPa 0 mm 0.89 m/s, 243° 370 W/m² -
1787803145 30° C 77% 1011.2 hPa 0 mm 1.79 m/s, 212° 842 W/m² -
1787803084 30° C 76% 1011.2 hPa 0 mm 1.34 m/s, 228° 370 W/m² -
1787803023 30° C 76% 1011.1 hPa 0 mm 1.79 m/s, 24° 565 W/m² -
1787802963 30° C 77% 1011.1 hPa 0 mm 0.89 m/s, 254° 697 W/m² -
1787802902 30° C 77% 1011 hPa 0 mm 1.34 m/s, 227° 277 W/m² -
1787802840 30° C 77% 1011 hPa 0 mm 0.89 m/s, 83° 801 W/m² -
1787802779 30° C 77% 1011.2 hPa 0 mm 1.34 m/s, 187° 700 W/m² -
1787802719 29.44° C 77% 1011 hPa 0 mm 1.34 m/s, 250° 768 W/m² -
1787802658 29.44° C 77% 1011 hPa 0 mm 0.89 m/s, 177° 844 W/m² -
1787802596 30° C 77% 1011 hPa 0 mm 1.34 m/s, 325° 885 W/m² -
1787802536 30° C 76% 1011 hPa 0 mm 1.79 m/s, 226° 861 W/m² -
1787802474 30° C 77% 1011 hPa 0 mm 1.79 m/s, 284° 284 W/m² -
1787802413 30° C 77% 1010.9 hPa 0 mm 0.89 m/s, 314° 511 W/m² -
1787802353 30° C 76% 1010.9 hPa 0 mm 2.24 m/s, 211° 255 W/m² -
1787802292 30° C 77% 1011 hPa 0 mm 1.79 m/s, 279° 221 W/m² -

* Rain latest hour (hover to see other rain measurements)
** Current wind speed in m/s (hover to see current wind gust speed)